Staunton, VA

6:48 PM EDT on June 23, 2017 (GMT -0400)
Shenandoah Valley Regional

Weather History for KSHD - November, 2012

Change the Weather History Date:

Thursday, November 8, 2012

  Actual Average Record
Temperature  
Mean Temperature 42 °F -  
Max Temperature 58 °F 58 °F 73 °F (1996)
Min Temperature 28 °F 35 °F 23 °F (2007)
Degree Days  
Heating Degree Days 22    
Moisture  
Dew Point 21 °F    
Average Humidity 51    
Maximum Humidity 88    
Minimum Humidity 15    
Precipitation  
Precipitation 0.00 in - - ()
Sea Level Pressure  
Sea Level Pressure 30.03 in    
Wind  
Wind Speed 2 mph (NNW)    
Max Wind Speed 16 mph    
Max Gust Speed 21 mph    
Visibility 10 miles    
Events      
Averages and records for this station are not official NWS values.
T = Trace of Precipitation, MM = Missing Value Source: NWS Daily Summary

Daily Weather History Graph

Daily Weather History Graph

Search for Another Location

Airport or City:

Trip Planner

Search our weather history database for the weather conditions in past years. The results will help you decide how hot, cold, wet, or windy it might be!

Date:

Astronomy

Nov. 08, 2012 Rise Set
Actual Time 6:49 AM EST 5:08 PM EST
Civil Twilight 6:21 AM EST 5:36 PM EST
Nautical Twilight 5:50 AM EST 6:07 PM EST
Astronomical Twilight 5:19 AM EST 6:38 PM EST
Moon 12:48 AM EST (11/8) 1:44 PM EST (11/8)
Length of Visible Light 11h 14m
Length of Day
10h 18m
Waning Crescent, 33% of the Moon is Illuminated
Nov 8
Waning Crescent
Nov 13
New
Nov 20
First Quarter
Nov 28
Full
Dec 6
Last Quarter

Hourly Weather History & Observations

Time (EST) Temp. Windchill Dew Point Humidity Pressure Visibility Wind Dir Wind Speed Gust Speed Precip Events Conditions
12:15 AM 36.9 °F - 28.9 °F 73% 29.97 in 10.0 mi Calm Calm - N/A   Overcast
12:35 AM 37.8 °F - 28.4 °F 69% 29.96 in 10.0 mi Calm Calm - N/A   Overcast
12:55 AM 36.3 °F - 29.3 °F 76% 29.96 in 10.0 mi Calm Calm - N/A   Overcast
1:15 AM 36.9 °F - 28.9 °F 73% 29.96 in 10.0 mi Calm Calm - N/A   Overcast
1:35 AM 36.0 °F - 29.3 °F 77% 29.96 in 10.0 mi Calm Calm - N/A   Overcast
2:15 AM 35.6 °F - 30.0 °F 80% 29.96 in 10.0 mi Calm Calm - N/A   Mostly Cloudy
2:35 AM 35.4 °F - 29.8 °F 80% 29.96 in 10.0 mi Calm Calm - N/A   Scattered Clouds
2:55 AM 34.3 °F - 30.0 °F 84% 29.96 in 10.0 mi Calm Calm - N/A   Clear
3:15 AM 34.7 °F - 29.8 °F 82% 29.96 in 10.0 mi Calm Calm - N/A   Clear
3:35 AM 35.6 °F - 29.1 °F 77% 29.96 in 10.0 mi Calm Calm - N/A   Clear
3:55 AM 34.5 °F - 28.8 °F 79% 29.97 in 10.0 mi Calm Calm - N/A   Clear
4:15 AM 33.1 °F - 28.9 °F 85% 29.97 in 10.0 mi Calm Calm - N/A   Clear
4:35 AM 32.7 °F - 28.9 °F 86% 29.97 in 10.0 mi Calm Calm - N/A   Clear
4:55 AM 32.0 °F - 28.8 °F 88% 29.97 in 10.0 mi Calm Calm - N/A   Clear
5:15 AM 31.6 °F - 27.9 °F 86% 29.98 in 7.0 mi Calm Calm - N/A   Clear
5:35 AM 31.1 °F - 27.3 °F 86% 29.98 in 10.0 mi Calm Calm - N/A   Clear
5:55 AM 31.6 °F - 27.1 °F 83% 29.99 in 10.0 mi Calm Calm - N/A   Clear
6:15 AM 30.7 °F - 26.6 °F 85% 29.99 in 10.0 mi Calm Calm - N/A   Clear
6:35 AM 30.0 °F - 26.4 °F 86% 29.99 in 10.0 mi Calm Calm - N/A   Clear
7:15 AM 28.9 °F - 25.7 °F 88% 30.00 in 7.0 mi Calm Calm - N/A   Clear
7:35 AM 30.9 °F - 26.6 °F 84% 30.01 in 10.0 mi Calm Calm - N/A   Clear
7:55 AM 32.0 °F - 27.7 °F 84% 30.02 in 7.0 mi Calm Calm - N/A   Clear
8:15 AM 32.9 °F - 29.3 °F 87% 30.03 in 7.0 mi Calm Calm - N/A   Clear
8:35 AM 35.6 °F - 29.3 °F 78% 30.03 in 10.0 mi Calm Calm - N/A   Clear
8:55 AM 38.1 °F - 26.6 °F 63% 30.04 in 10.0 mi Calm Calm - N/A   Clear
9:15 AM 39.4 °F - 27.5 °F 62% 30.04 in 10.0 mi Calm Calm - N/A   Clear
9:35 AM 40.6 °F - 26.8 °F 58% 30.05 in 10.0 mi Calm Calm - N/A   Clear
9:55 AM 42.8 °F - 22.3 °F 44% 30.05 in 10.0 mi Calm Calm - N/A   Clear
10:15 AM 44.1 °F - 21.4 °F 41% 30.05 in 10.0 mi Calm Calm - N/A   Clear
10:35 AM 45.0 °F - 16.3 °F 32% 30.05 in 10.0 mi Calm Calm - N/A   Clear
10:55 AM 46.8 °F - 16.2 °F 29% 30.05 in 10.0 mi Calm Calm - N/A   Clear
11:15 AM 49.6 °F - 14.2 °F 24% 30.05 in 10.0 mi North 8.1 mph - N/A   Clear
11:35 AM 51.3 °F - 12.4 °F 21% 30.04 in 10.0 mi North 6.9 mph - N/A   Clear
11:55 AM 53.1 °F - 12.9 °F 20% 30.03 in 10.0 mi North 6.9 mph - N/A   Clear
12:15 PM 55.4 °F - 9.7 °F 16% 30.02 in 10.0 mi NNW 10.4 mph - N/A   Clear
12:35 PM 55.8 °F - 9.3 °F 16% 30.01 in 10.0 mi NNW 11.5 mph - N/A   Clear
12:55 PM 56.7 °F - 8.8 °F 15% 30.00 in 10.0 mi North 16.1 mph 20.7 mph N/A   Clear
1:15 PM 57.4 °F - 10.2 °F 15% 30.01 in 10.0 mi North 13.8 mph 18.4 mph N/A   Clear
1:55 PM 57.9 °F - 11.7 °F 16% 30.00 in 10.0 mi NNW 12.7 mph 17.3 mph N/A   Clear
2:15 PM 57.6 °F - 11.5 °F 16% 30.00 in 10.0 mi North 11.5 mph 19.6 mph N/A   Clear
2:35 PM 57.4 °F - 12.9 °F 17% 29.99 in 10.0 mi North 10.4 mph - N/A   Clear
2:55 PM 57.7 °F - 14.2 °F 18% 30.00 in 10.0 mi NNW 10.4 mph - N/A   Clear
3:15 PM 57.2 °F - 13.1 °F 18% 30.00 in 10.0 mi North 12.7 mph 17.3 mph N/A   Clear
3:35 PM 56.8 °F - 13.1 °F 18% 30.01 in 10.0 mi North 13.8 mph 19.6 mph N/A   Clear
3:55 PM 55.8 °F - 13.6 °F 19% 30.02 in 10.0 mi North 11.5 mph - N/A   Clear
4:15 PM 54.7 °F - 15.3 °F 21% 30.02 in 10.0 mi North 10.4 mph - N/A   Clear
4:35 PM 53.6 °F - 16.0 °F 23% 30.02 in 10.0 mi NNW 12.7 mph 17.3 mph N/A   Clear
4:55 PM 52.2 °F - 15.8 °F 24% 30.02 in 10.0 mi NNW 9.2 mph - N/A   Clear
5:15 PM 51.3 °F - 16.0 °F 25% 30.03 in 10.0 mi NNW 6.9 mph - N/A   Clear
5:35 PM 49.6 °F - 16.5 °F 27% 30.04 in 10.0 mi NNW 6.9 mph - N/A   Clear
5:55 PM 48.4 °F - 16.7 °F 28% 30.05 in 10.0 mi North 5.8 mph - N/A   Clear
6:15 PM 47.7 °F - 17.2 °F 30% 30.06 in 10.0 mi NNW 4.6 mph - N/A   Clear
6:35 PM 44.8 °F 43.3 °F 18.1 °F 34% 30.07 in 10.0 mi NE 3.5 mph - N/A   Clear
6:55 PM 42.1 °F 38.4 °F 19.6 °F 41% 30.07 in 10.0 mi NE 5.8 mph - N/A   Clear
7:15 PM 44.2 °F 42.7 °F 18.5 °F 36% 30.08 in 10.0 mi NNW 3.5 mph - N/A   Clear
7:35 PM 40.5 °F 38.4 °F 19.9 °F 44% 30.08 in 10.0 mi NW 3.5 mph - N/A   Clear
7:55 PM 43.7 °F - 18.9 °F 37% 30.09 in 10.0 mi Calm Calm - N/A   Clear
8:15 PM 43.2 °F 39.7 °F 19.2 °F 38% 30.09 in 10.0 mi NW 5.8 mph - N/A   Clear
8:35 PM 44.1 °F 42.5 °F 19.6 °F 38% 30.10 in 10.0 mi North 3.5 mph - N/A   Clear
8:55 PM 42.8 °F 40.1 °F 19.4 °F 39% 30.10 in 10.0 mi NW 4.6 mph - N/A   Clear
9:15 PM 40.3 °F - 20.7 °F 46% 30.11 in 10.0 mi Calm Calm - N/A   Clear
9:35 PM 41.5 °F - 20.1 °F 42% 30.11 in 10.0 mi Calm Calm - N/A   Clear
9:55 PM 36.3 °F - 21.2 °F 54% 30.13 in 10.0 mi Calm Calm - N/A   Clear
10:15 PM 39.7 °F - 20.5 °F 46% 30.13 in 10.0 mi Calm Calm - N/A   Clear
10:35 PM 34.9 °F - 21.2 °F 57% 30.13 in 10.0 mi Calm Calm - N/A   Clear
10:55 PM 34.7 °F - 21.4 °F 58% 30.13 in 10.0 mi Calm Calm - N/A   Clear
11:15 PM 34.5 °F - 21.9 °F 60% 30.14 in 10.0 mi Calm Calm - N/A   Clear
11:35 PM 32.9 °F - 21.6 °F 63% 30.14 in 10.0 mi Calm Calm - N/A   Clear
11:55 PM 31.5 °F - 21.9 °F 68% 30.14 in 10.0 mi Calm Calm - N/A   Clear